Miscellaneous Local Product
Issued by NWS Hastings, NE

Home | Current Version | Previous Version | Graphics & Text | Print | Product List | Glossary On
Versions: 1 2 3 4 5 6 7 8 9 10 11 12 13 14 15 16 17 18 19 20 21 22 23 24 25 26 27 28 29 30 31 32 33 34 35 36 37 38 39 40 41 42 43 44 45 46 47 48 49 50
000
AXUS43 KGID 060502
MISGRI

GID CWA HOURLY WEATHER ROUNDUP
NATIONAL WEATHER SERVICE HASTINGS NE
1100 PM CST THU MAR 05 2015

NOTE: "FAIR" INDICATES FEW OR NO CLOUDS BELOW 12,000 FEET WITH NO
SIGNIFICANT WEATHER AND/OR OBSTRUCTIONS TO VISIBILITY.

...SOUTH CENTRAL NEBRASKA...

CITY           SKY/WX    TMP DP  RH WIND       PRES   REMARKS
GRAND ISLAND   CLEAR     32   7  35 S15       30.22F WCI  22
HASTINGS       CLEAR     32   5  32 S9G20     30.22F WCI  24
KEARNEY        CLEAR     30   7  37 SW14      30.22S WCI  20
ORD            CLEAR     21   9  59 CALM      30.19F
YORK           MOCLDY    27  10  50 S10       30.26F WCI  17
AURORA         PTCLDY    27   9  47 S10       30.24F WCI  17
LEXINGTON      CLEAR     21  11  64 NW6       30.22S WCI  14
HOLDREGE       CLEAR     30   7  38 SW9       30.22F WCI  21
HEBRON         CLEAR     31  11  44 S10       30.29F WCI  22

...NEBRASKA PANHANDLE...

CITY           SKY/WX    TMP DP  RH WIND       PRES   REMARKS
CHADRON        PTCLDY    29  20  69 W9        30.20R WCI  20
ALLIANCE       CLEAR     22  16  78 W12       30.21R WCI  10
SCOTTSBLUFF    CLEAR     27  18  69 N5        30.23S WCI  22
SIDNEY         CLEAR     29  19  66 W12       30.25R WCI  19

...WESTERN AND NORTH CENTRAL NEBRASKA...

CITY           SKY/WX    TMP DP  RH WIND       PRES   REMARKS
VALENTINE      CLEAR     29  20  69 W9        30.16S WCI  20
AINSWORTH      CLEAR     29  17  59 W9        30.16S WCI  21
ONEILL         CLEAR     30  12  46 S8        30.17S WCI  22
BROKEN BOW     CLEAR     27  10  49 SW5       30.19S WCI  22
IMPERIAL         N/A     30  14  51 W9        30.25S WCI  22
NORTH PLATTE   CLEAR     20  10  65 NW6       30.23S WCI  12
MCCOOK         CLEAR     29  15  56 W8        30.25R WCI  21

...EASTERN NEBRASKA...

CITY           SKY/WX    TMP DP  RH WIND       PRES   REMARKS
NORFOLK        MOCLDY    30   8  39 S20       30.21F WCI  17
SO SIOUX CITY  CLOUDY    23   8  52 SE13      30.27F WCI  11
TEKAMAH        MOCLDY    22   9  57 SE7       30.31F WCI  13
COLUMBUS       MOCLDY    30   7  37 S13       30.27F WCI  20
ALBION         PTCLDY    26   6  42 SE6       30.22F WCI  20
OMAHA EPPLEY   MOCLDY    25   7  46 S17       30.34F WCI  12
OFFUTT AFB     CLEAR     24   8  50 SE12      30.33F WCI  13
MILLARD        CLEAR     24   9  51 SE9       30.34F WCI  15
LINCOLN        MOCLDY    27  11  51 S14       30.31F WCI  16
NEBRASKA CITY  PTCLDY    23   4  43 S16       30.35F WCI  10
BEATRICE       PTCLDY    27  14  59 S13       30.32F WCI  16
FALLS CITY     CLEAR     24  10  55 S10       30.39F WCI  14

...NORTHERN KANSAS...

CITY           SKY/WX    TMP DP  RH WIND       PRES   REMARKS
GOODLAND       CLEAR     29  20  69 W9        30.29S WCI  20
HILL CITY      CLEAR     32  13  45 W7        30.29S WCI  26
NORTON         CLEAR     27  10  50 SW9       30.26R WCI  17
PHILLIPSBURG   CLEAR     34  12  40 SW10      30.28S WCI  26
SMITH CENTER   CLEAR     25   5  42 S7        30.29S WCI  17
BELOIT         CLEAR     30  12  47 SE8       30.31F WCI  23
HAYS           CLEAR     30  10  43 SW9       30.31F WCI  22
RUSSELL        CLEAR     30  14  51 S10       30.30F WCI  21
CONCORDIA      CLEAR     32  16  51 S17       30.31F WCI  21
SALINA         CLEAR     31  17  56 S9        30.37S WCI  23
TOPEKA         CLEAR     27  13  55 SE10      30.44F WCI  17



USA.gov is the U.S. government's official web portal to all federal, state and local government web resources and services.